Content
SEND FEEDBACK

Daily
Averages
Monthly
Summary
United States of America

MOUNTAIN HOME, IDAHO


Home > North America > United States > Idaho
Elevation: 2996 feet     Latitude: 43 03N     Longitude: 115 52W

WEATHER
 
SELECT A DAY
Number of Records: 176,611;   Date Range: 1/1/95 - 7/26/14
 
SHARE

PRINT THIS DATA

[ ← Previous Day ]
WEATHER ALMANAC - JANUARY 31, 2013
[ Next Day → ]
[ °C ]   °F
Weather ElementAverageHighLow
Temperature36.5 °F51.1 °F (2:58 pm)30.4 °F (11:58 pm)
Dewpoint34.5 °F45.9 °F (1:58 pm)28.4 °F (10:23 pm)
Humidity93.4 %100 % (12:58 am)58 % (2:58 pm)
Barometer30.32 in30.39 in (7:58 am)30.24 in (10:43 pm)
Wind Speed5.1 mph12.7 mph (1:58 am)
Weather ElementAverage
Visibility10 mi
Wind DirectionWSW (231.9 °)

Weather ElementTotal
Precipitation---
Heating Degree Days24.3 (Base 65)
Averaged from 43 records on January 31, 2013
WEATHER CONDITIONS BREAKOUT
WIND DIRECTION BREAKOUT
WEATHER BY HOUR - JANUARY 31, 2013
[ °C ]   °F
Local TimeTemperatureDewpointHumidityBarometerVisibilityWind DirectionWind SpeedGust SpeedPrecipitationEventsConditions
12:58 AM32.9 °F32.9 °F100 %30.35 in10.0 miNW (310°)9.2 mphClear
1:58 AM36.3 °F36.3 °F100 %30.34 in10.0 miNNW (340°)12.7 mphMostly Cloudy
2:13 AM35.6 °F35.6 °F100 %30.30 in10.0 miNNW (330°)10.4 mphScattered Clouds
2:33 AM33.8 °F33.8 °F100 %30.31 in10.0 miNW (320°)6.9 mphMostly Cloudy
2:58 AM33.4 °F33.4 °F100 %30.36 in10.0 miNW (320°)5.8 mphOvercast
3:18 AM35.6 °F35.6 °F100 %30.32 in10.0 miWNW (300°)9.2 mphOvercast
3:53 AM35.6 °F35.6 °F100 %30.32 in10.0 miNW (310°)8.1 mphMostly Cloudy
3:58 AM35.1 °F35.1 °F100 %30.37 in10.0 miWest (280°)5.8 mphMostly Cloudy
4:28 AM35.6 °F35.6 °F100 %30.31 in10.0 miWest (280°)4.6 mphOvercast
4:58 AM35.6 °F35.6 °F100 %30.36 in10.0 miNW (310°)5.8 mphMostly Cloudy
5:03 AM35.6 °F35.6 °F100 %30.31 in10.0 miNW (310°)5.8 mphOvercast
5:33 AM33.8 °F33.8 °F100 %30.31 in10.0 miNW (320°)5.8 mphOvercast
5:58 AM33.6 °F33.6 °F100 %30.37 in10.0 miWest (270°)6.9 mphOvercast
6:28 AM32.0 °F32.0 °F100 %30.31 in10.0 miWNW (300°)4.6 mphMostly Cloudy
6:33 AM32.0 °F32.0 °F100 %30.31 in10.0 miWNW (290°)5.8 mphScattered Clouds
6:58 AM32.0 °F31.8 °F99 %30.38 in10.0 miWest (270°)4.6 mphPartly Cloudy
7:08 AM32.0 °F32.0 °F100 %30.32 in10.0 miNW (310°)1.2 mphMostly Cloudy
7:58 AM33.8 °F33.8 °F100 %30.39 in10.0 miWNW (300°)2.3 mphOvercast
8:08 AM32.0 °F32.0 °F100 %30.33 in10.0 miWest (280°)3.5 mphOvercast
8:28 AM32.0 °F32.0 °F100 %30.33 in10.0 miWest (280°)1.2 mphOvercast
8:58 AM33.3 °F33.3 °F100 %30.39 in10.0 miWNW (290°)2.3 mphOvercast
9:58 AM38.5 °F38.5 °F100 %30.39 in10.0 miSW (220°)2.3 mphOvercast
10:58 AM41.7 °F41.7 °F100 %30.39 in10.0 miCalmOvercast
11:28 AM42.8 °F42.8 °F100 %30.34 in10.0 miNorth (10°)3.5 mphOvercast
11:58 AM44.4 °F44.4 °F100 %30.38 in10.0 miNorth (10°)8.1 mphOvercast
12:08 PM44.6 °F44.6 °F100 %30.33 in10.0 miVariable6.9 mphOvercast
12:58 PM46.0 °F45.5 °F98 %30.36 in10.0 miNW (320°)8.1 mphMostly Cloudy
1:58 PM45.9 °F45.9 °F100 %30.32 in10.0 miNNW (330°)4.6 mphOvercast
2:58 PM51.1 °F36.9 °F58 %30.31 in10.0 miNNW (340°)9.2 mphMostly Cloudy
3:58 PM48.0 °F35.4 °F62 %30.30 in10.0 miNorth (350°)8.1 mphMostly Cloudy
4:58 PM46.6 °F34.7 °F63 %30.30 in10.0 miNNW (340°)9.2 mphMostly Cloudy
5:58 PM43.9 °F33.8 °F68 %30.30 in10.0 miNW (320°)6.9 mphScattered Clouds
6:58 PM38.5 °F32.5 °F79 %30.31 in10.0 miNorth (350°)2.3 mphScattered Clouds
7:58 PM36.3 °F31.1 °F81 %30.32 in10.0 miNNW (340°)2.3 mphMostly Cloudy
8:58 PM34.0 °F30.2 °F86 %30.32 in10.0 miNorth (10°)1.2 mphScattered Clouds
9:13 PM32.0 °F30.2 °F93 %30.26 in10.0 miNorth (10°)2.3 mphMostly Cloudy
9:58 PM33.8 °F30.2 °F87 %30.31 in10.0 miNorth (10°)1.2 mphOvercast
10:03 PM32.0 °F30.2 °F93 %30.25 in10.0 miSouth (180°)5.8 mphOvercast
10:23 PM32.0 °F28.4 °F87 %30.25 in10.0 miNNE (30°)1.2 mphOvercast
10:43 PM32.0 °F28.4 °F87 %30.24 in10.0 miSSE (160°)3.5 mphMostly Cloudy
10:58 PM30.7 °F28.4 °F91 %30.29 in10.0 miSE (140°)3.5 mphMostly Cloudy
11:03 PM32.0 °F30.2 °F93 %30.24 in10.0 miSSE (160°)2.3 mphScattered Clouds
11:58 PM30.4 °F28.4 °F92 %30.30 in10.0 miNNE (20°)3.5 mph0.00 inLight Drizzle
Hourly data recorded from KMUO, located miles away from Mountain Home, Idaho







STORIES FROM OUR PARTNERS